Flag for U.S.A. Weather past 2 weeks in St. Petersburg, Florida, U.S.A.

Now
86 °F

Passing clouds.


Feels Like: 94 °F
Forecast: 81 / 91 °F
Wind: 5 mph from North

Location: Whitted Airport

Current Time: Jun 30, 2015 at 8:28:55 PM

Latest Report: Jun 30, 2015 at 7:53 PM


Visibility: 10 mi

Pressure: 30.08 "Hg

Humidity: 67%

Dew point: 74 °F

Location of St. PetersburgLocation

Historic Weather in St. Petersburg — Graph

°F

St. Petersburg temperature yesterday

Maximum temperature yesterday: 87 °F (at 11:53 AM)
Minimum temperature yesterday: 79 °F (at 3:53 AM)
Average temperature yesterday: 84 °F

Past Weeks' High & Low Weather Summary

 TemperatureHumidityPressure
High94 °F (Jun 16, 3:53 PM)94% (Jun 23, 7:53 PM)30.17 "Hg (Jun 23, 7:53 PM)
Low76 °F (Jun 22, 7:53 AM)44% (Jun 16, 3:53 PM)29.97 "Hg (Jun 28, 3:53 AM)
Average84 °F71%30.07 "Hg
* Reported Jun 15 6:53 PM — Jun 30 6:53 PM, St. Petersburg, Weather by CustomWeather, © 2015

Note: Actual official high and low records may vary slightly from our data, if they occured in-between our weather recording intervals... More about our weather records

Advertising

St. Petersburg weather history for previous 24 hours

 ConditionsComfort  
Time TempWeatherWind HumidityBarometerVisibility
6:53 PM
Tue, Jun 30
87 °FBroken clouds.6 mph67%30.07 "Hg10 mi
5:53 PM87 °FScattered clouds.8 mph65%30.07 "Hg10 mi
5:00 PM88 °FThundershowers. Passing clouds.8 mph61%30.08 "Hg10 mi
3:53 PM86 °FScattered clouds.13 mph67%30.07 "Hg10 mi
2:53 PM88 °FPassing clouds.10 mph61%30.07 "Hg10 mi
1:53 PM88 °FScattered clouds.10 mph61%30.09 "Hg10 mi
12:53 PM88 °FScattered clouds.13 mph61%30.11 "Hg10 mi
11:53 AM87 °FPassing clouds.N/A59%30.12 "Hg10 mi
10:53 AM86 °FPassing clouds.12 mph67%30.13 "Hg10 mi
9:53 AM86 °FScattered clouds.9 mph67%30.11 "Hg10 mi
8:53 AM84 °FScattered clouds.8 mph72%30.11 "Hg10 mi
7:53 AM80 °FSunny.5 mph81%30.10 "Hg10 mi
6:53 AM82 °FClear.5 mph77%30.09 "Hg10 mi
5:53 AM83 °FClear.5 mph74%30.07 "Hg10 mi
4:53 AM83 °FClear.7 mph74%30.06 "Hg10 mi
3:53 AM81 °FClear.7 mph82%30.06 "Hg10 mi
2:53 AM79 °FPassing clouds.No wind90%30.06 "Hg10 mi
1:53 AM83 °FClear.5 mph74%30.07 "Hg10 mi
12:53 AM84 °FClear.7 mph72%30.08 "Hg10 mi
11:53 PM
Mon, Jun 29
83 °FClear.5 mph74%30.07 "Hg10 mi
10:53 PM83 °FClear.6 mph74%30.07 "Hg10 mi
9:53 PM83 °FClear.8 mph74%30.06 "Hg10 mi
8:53 PM84 °FPassing clouds.5 mph72%30.06 "Hg10 mi
Weather by CustomWeather, © 2015

See weather overviewHow to use our weather pages